Weather in Khripunovo

Russia / Nizhny Novgorod Oblast'     55°10′35″N   43°11′37″E
temp.,
°C
wind,
m/s
gust,
m/s
humid.,
%
clouds,
%
prec.,
mm/h
press.,
hPa
HPBL,
m
6 march, sat
sat600:00−12wnw479336 0.0 101290
03:00−14wnw349418 0.0 101529
06:00−15w22940 0.0 101520
09:00−12wsw249216 0.0 1016120
12:00−7w248947 0.0 1016423
15:00−6wnw248474 0.2 1014700
18:00−10wnw238899 0.1 101421
21:00−13w339266 0.1 101421
7 march, sun
sun700:00−14wsw239217 0.0 101320
03:00−14sw449752 0.1 101273
06:00−16ssw589780 0.0 1010120
09:00−12ssw7139190 0.0 1007386
12:00−7ssw101592100 0.1 1003944
15:00−5ssw101692100 0.9 9981218
18:00−4sw91593100 1.1 993975
21:00−7wnw101590100 2.2 993691
8 march, mon
mon800:00−11wsw5128433 0.1 994224
03:00−10wsw6148343 0.1 996394
06:00−9wsw51194100 0.3 995530
09:00−7w589297 0.6 996560
12:00−5w697620 0.0 9961090
15:00−6wnw6107860 0.0 9981134
18:00−9wnw5119097 0.1 1002468
21:00−10nw5109494 0.3 1005366
9 march, tue
tue900:00−13wnw489780 0.1 1008150
03:00−16wnw349885 0.1 101078
06:00−18nw3410099 0.0 101352
09:00−18nw359799 0.1 1015201
12:00−14nw348696 0.0 1015491
15:00−12nw358698 0.1 1016723
18:00−15nw3395100 0.1 101727
21:00−19nnw3497100 0.1 101955
10 march, wed
wed1000:00−23nnw3310051 0.0 102025
03:00−25nw3310073 0.0 102235
06:00−26nnw3310093 0.0 102331
09:00−24nnw359765 0.0 1024176
12:00−18nnw348545 0.0 1025439
15:00−16nnw358149 0.0 1024583
18:00−20nne239475 0.0 102420
21:00−24n119837 0.0 102620